GW7436 Weather Reports


time (UTC)temp
C
wind
direction
speed
KPH
gust
KPH
rain 1hr
cm
rain 24hr
cm
rain mn
cm
humidity
%
barometer
mb
20260905224515 33 41 1.6 3.2 0.00 0.08 0.00 58 983.7
20260905223515 33 6 1.6 3.2 0.00 0.08 0.00 56 983.7
20260905222515 33 27 1.6 3.2 0.00 0.08 0.00 57 983.6
20260905221530 32 47 3.2 3.2 0.00 0.08 0.00 57 983.6
20260905220515 32 30 1.6 3.2 0.00 0.08 0.00 59 983.7
20260905215530 33 47 3.2 6.4 0.00 0.08 0.00 57 983.7
20260905214515 33 12 4.8 4.8 0.00 0.08 0.00 55 983.8
20260905213515 33 350 3.2 3.2 0.00 0.08 0.00 51 983.9
20260905212515 34 29 4.8 6.4 0.00 0.08 0.00 54 983.8
20260905211530 35 35 6.4 9.7 0.00 0.08 0.00 52 983.8
20260905210515 34 27 3.2 4.8 0.00 0.08 0.00 49 983.8
20260905205515 34 350 4.8 6.4 0.00 0.08 0.00 49 983.9
20260905204515 35 354 3.2 6.4 0.00 0.08 0.00 47 984.0
20260905203515 34 22 1.6 4.8 0.00 0.08 0.00 49 984.1
20260905202515 33 354 3.2 4.8 0.00 0.08 0.00 49 984.2
20260905201515 33 332 4.8 8.0 0.00 0.08 0.00 50 984.3
20260905200515 33 209 4.8 6.4 0.00 0.08 0.00 50 984.5
20260905195530 33 206 3.2 6.4 0.00 0.08 0.00 50 984.6
20260905194530 33 216 3.2 8.0 0.00 0.08 0.00 53 984.8
20260905193515 33 321 3.2 6.4 0.00 0.08 0.00 52 984.9
20260905192515 33 14 4.8 6.4 0.00 0.08 0.00 53 985.0
20260905191515 33 277 1.6 3.2 0.00 0.08 0.00 50 985.1
20260905190515 33 285 3.2 6.4 0.00 0.08 0.00 51 985.3
20260905185515 33 274 1.6 3.2 0.00 0.08 0.00 50 985.3
20260905184515 33 276 4.8 6.4 0.00 0.08 0.00 51 985.4
20260905183530 32 221 3.2 6.4 0.00 0.08 0.00 53 985.5
20260905182515 32 261 4.8 9.7 0.00 0.08 0.00 54 985.7
20260905181515 32 2 3.2 3.2 0.00 0.08 0.00 52 985.8
20260905180515 32 258 1.6 3.2 0.00 0.08 0.00 51 985.9
20260905175531 32 187 3.2 6.4 0.00 0.08 0.00 49 985.9
20260905174515 32 187 3.2 6.4 0.00 0.08 0.00 51 986.0
20260905173515 32 198 6.4 8.0 0.00 0.08 0.00 53 986.1
20260905172515 32 158 4.8 6.4 0.00 0.08 0.00 51 986.1
20260905171515 31 165 6.4 9.7 0.00 0.08 0.00 55 986.2
20260905170515 31 189 6.4 9.7 0.00 0.08 0.00 55 986.4
20260905165515 31 125 1.6 4.8 0.00 0.08 0.00 54 986.6
20260905164515 31 221 3.2 6.4 0.00 0.08 0.00 58 986.8
20260905163515 30 133 6.4 9.7 0.00 0.08 0.00 55 986.9
20260905162515 30 151 3.2 8.0 0.00 0.08 0.00 56 986.8
20260905161530 30 172 3.2 6.4 0.00 0.08 0.00 62 986.8
20260905160515 30 172 6.4 9.7 0.00 0.08 0.00 61 986.8
20260905155515 29 167 3.2 8.0 0.00 0.08 0.00 60 986.8
20260905154515 29 163 4.8 9.7 0.00 0.08 0.00 61 986.8
20260905153515 28 144 3.2 6.4 0.00 0.08 0.00 63 986.9
20260905152515 28 141 8.0 12.9 0.00 0.08 0.00 63 986.8
20260905151515 27 133 4.8 8.0 0.00 0.08 0.00 65 987.0
20260905150515 27 139 6.4 8.0 0.00 0.08 0.00 66 987.1
20260905145515 26 154 6.4 9.7 0.00 0.08 0.00 69 987.1
20260905144515 26 129 4.8 6.4 0.00 0.08 0.00 70 987.3
20260905143515 26 117 8.0 11.3 0.00 0.08 0.00 70 987.4
20260905142530 25 111 8.0 12.9 0.00 0.08 0.00 72 987.5
20260905141515 25 101 4.8 8.0 0.00 0.08 0.00 75 987.5
20260905140515 25 97 6.4 11.3 0.00 0.08 0.00 73 987.7
20260905135515 25 73 6.4 9.7 0.05 0.08 0.00 74 987.9
20260905134530 25 87 6.4 8.0 0.05 0.08 0.00 76 987.8
20260905133515 24 69 6.4 12.9 0.05 0.08 0.00 79 987.5
20260905132515 23 89 9.7 12.9 0.05 0.08 0.00 84 987.6
20260905131515 23 75 9.7 14.5 0.05 0.08 0.00 88 987.6
20260905130530 23 64 6.4 11.3 0.05 0.08 0.00 89 988.1
20260905125515 23 53 8.0 9.7 0.00 0.08 0.00 87 988.2
20260905124515 22 4 1.6 4.8 0.00 0.03 0.00 88 988.3
20260905123515 22 56 4.8 6.4 0.00 0.03 0.00 87 988.2
20260905122515 22 44 6.4 8.0 0.00 0.03 0.00 90 988.2
20260905121515 22 171 3.2 6.4 0.00 0.03 0.00 91 987.1
20260905120515 22 190 4.8 6.4 0.00 0.03 0.00 90 987.3
20260905115515 22 42 3.2 3.2 0.00 0.03 0.00 90 987.1
20260905114515 22 0 0.0 0.0 0.00 0.03 0.00 89 987.0
20260905113515 22 87 1.6 3.2 0.00 0.03 0.00 89 986.8
20260905112515 22 79 3.2 4.8 0.00 0.03 0.00 89 986.8
20260905111515 22 77 3.2 6.4 0.00 0.03 0.00 89 986.5
20260905110515 23 46 4.8 6.4 0.00 0.03 0.00 88 986.6
20260905105530 23 20 6.4 11.3 0.00 0.03 0.00 85 986.6
20260905104515 23 73 3.2 6.4 0.00 0.03 0.00 86 986.3
20260905103515 23 48 4.8 8.0 0.00 0.03 0.00 91 986.3
20260905102515 23 161 0.0 1.6 0.00 0.03 0.00 90 985.7
20260905101515 23 166 1.6 3.2 0.00 0.03 0.00 90 985.6
20260905100530 24 190 1.6 3.2 0.00 0.03 0.00 89 985.6
20260905095530 24 130 1.6 3.2 0.00 0.03 0.00 88 985.9
20260905094515 25 0 0.0 0.0 0.03 0.03 0.00 87 985.8
20260905093530 25 356 4.8 6.4 0.03 0.03 0.00 84 985.7
20260905092515 25 345 4.8 6.4 0.03 0.03 0.00 80 985.7
20260905091515 24 338 4.8 4.8 0.03 0.03 0.00 87 985.6
20260905090515 24 190 1.6 3.2 0.00 0.00 0.00 95 985.2
20260905085530 24 95 3.2 4.8 0.00 0.00 0.00 96 985.1
20260905084515 23 193 3.2 3.2 0.00 0.00 0.00 97 985.6
20260905083515 23 332 3.2 3.2 0.00 0.00 0.00 99 985.7
20260905082515 23 335 0.0 1.6 0.00 0.00 0.00 99 985.3
20260905081515 23 0 0.0 0.0 0.00 0.00 0.00 98 985.2
20260905080515 23 0 0.0 0.0 0.00 0.00 0.00 98 985.1
20260905075515 23 0 0.0 0.0 0.00 0.00 0.00 99 985.1
20260905074515 23 0 0.0 0.0 0.00 0.00 0.00 98 985.3
20260905073530 22 0 0.0 0.0 0.00 0.00 0.00 98 985.3
20260905072515 23 0 0.0 0.0 0.00 0.00 0.00 98 985.5
20260905071515 23 0 0.0 0.0 0.00 0.00 0.00 98 985.6
20260905070515 23 41 1.6 1.6 0.00 0.00 0.00 98 985.6
20260905065515 23 0 0.0 0.0 0.00 0.00 0.00 97 985.7
20260905064515 23 337 0.0 1.6 0.00 0.00 0.00 97 985.9
20260905063515 23 0 0.0 0.0 0.00 0.00 0.00 96 985.9
20260905062515 23 0 0.0 0.0 0.00 0.00 0.00 96 986.0
20260905061515 23 29 0.0 1.6 0.00 0.00 0.00 96 986.1
20260905060515 23 0 0.0 0.0 0.00 0.00 0.00 97 986.3
20260905055515 23 324 0.0 1.6 0.00 0.00 0.00 96 986.3
20260905054530 24 0 0.0 0.0 0.00 0.00 0.00 94 986.4
20260905053515 24 0 0.0 0.0 0.00 0.00 0.00 94 986.4
20260905052515 23 0 0.0 0.0 0.00 0.00 0.00 96 986.4
20260905051515 23 233 0.0 1.6 0.00 0.00 0.00 97 986.4
20260905050515 23 287 0.0 1.6 0.00 0.00 0.00 96 986.4
20260905045515 23 326 0.0 1.6 0.00 0.00 0.00 95 986.5
20260905044515 24 0 0.0 0.0 0.00 0.00 0.00 95 986.6
20260905043515 24 58 0.0 0.0 0.00 0.00 0.00 95 986.6
20260905042515 24 0 0.0 0.0 0.00 0.00 0.00 95 986.7
20260905041515 24 103 0.0 1.6 0.00 0.00 0.00 95 986.6
20260905040515 24 0 0.0 0.0 0.00 0.00 0.00 94 986.5
20260905035515 24 0 0.0 0.0 0.00 0.00 0.00 94 986.5
20260905034530 25 0 0.0 0.0 0.00 0.00 0.00 94 986.6
20260905033515 24 36 0.0 1.6 0.00 0.00 0.00 94 986.6
20260905032515 25 3 0.0 1.6 0.00 0.00 0.00 94 986.8
20260905031530 25 270 0.0 0.0 0.00 0.00 0.00 93 986.8
20260905030515 25 0 0.0 0.0 0.00 0.00 0.00 94 986.8
20260905025515 25 5 0.0 1.6 0.00 0.00 0.00 94 986.8
20260905024515 25 0 0.0 0.0 0.00 0.00 0.00 93 986.8
20260905023515 25 57 0.0 0.0 0.00 0.00 0.00 92 986.7
20260905022515 25 317 0.0 0.0 0.00 0.00 0.00 92 986.6
20260905021515 25 0 0.0 0.0 0.00 0.00 0.00 91 986.6
20260905020515 26 19 0.0 0.0 0.00 0.00 0.00 90 986.6
20260905015515 26 305 0.0 1.6 0.00 0.00 0.00 91 986.6
20260905014515 26 23 0.0 1.6 0.00 0.00 0.00 89 986.5
20260905013515 26 346 0.0 1.6 0.00 0.00 0.00 89 986.4
20260905012515 26 339 0.0 1.6 0.00 0.00 0.00 88 986.3
20260905011515 26 39 1.6 3.2 0.00 0.00 0.00 87 986.2
20260905010515 27 34 0.0 1.6 0.00 0.00 0.00 87 986.1
20260905005515 27 126 0.0 1.6 0.00 0.00 0.00 85 986.0
20260905004515 27 344 0.0 1.6 0.00 0.00 0.00 83 986.0
20260905003515 28 0 0.0 0.0 0.00 0.00 0.00 82 985.9
20260905002515 28 36 3.2 3.2 0.00 0.00 0.00 79 985.9
20260905001530 30 16 0.0 1.6 0.00 0.00 0.00 76 985.7
20260905000515 30 357 0.0 1.6 0.00 0.00 0.00 70 985.7
20260904235515 32 351 0.0 1.6 0.00 0.00 0.00 68 985.6
20260904234515 32 246 0.0 1.6 0.00 0.00 0.00 64 985.6
20260904233515 33 227 1.6 1.6 0.00 0.00 0.00 60 985.8
20260904232515 34 47 1.6 1.6 0.00 0.00 0.00 59 985.8
20260904231530 34 47 1.6 1.6 0.00 0.00 0.00 53 985.9
20260904230515 35 45 1.6 1.6 0.00 0.00 0.00 54 985.9
20260904225515 35 45 0.0 1.6 0.00 0.00 0.00 58 986.0